Montpelier, VT

1:58 AM EDT on April 24, 2018 (GMT -0400)
Knapp State

Weather History for KMPV - October, 2012

Change the Weather History Date:

Monday, October 1, 2012

  Actual Average Record
Temperature  
Mean Temperature 53 °F 51 °F  
Max Temperature 58 °F 62 °F 79 °F (1950)
Min Temperature 48 °F 40 °F 24 °F (1963)
Degree Days  
Heating Degree Days 12 14  
Month to date heating degree days 12 14  
Since 1 July heating degree days 335 369  
Cooling Degree Days 0 0  
Month to date cooling degree days 0 0  
Year to date cooling degree days 291 263  
Growing Degree Days 4 (Base 50)    
Moisture  
Dew Point 49 °F    
Average Humidity 89    
Maximum Humidity 100    
Minimum Humidity 77    
Precipitation  
Precipitation 0.05 in 0.11 in 3.58 in (2010)
Month to date precipitation 0.05 0.11  
Year to date precipitation 25.96 28.03  
Sea Level Pressure  
Sea Level Pressure 29.76 in    
Wind  
Wind Speed 6 mph (WSW)    
Max Wind Speed 17 mph    
Max Gust Speed 24 mph    
Visibility 10 miles    
Events Rain    
T = Trace of Precipitation, MM = Missing Value Source: NWS Daily Summary

Daily Weather History Graph

Daily Weather History Graph

Search for Another Location

Airport or City:

Astronomy

Oct. 01, 2012 Rise Set
Actual Time 6:48 AM EDT 6:30 PM EDT
Civil Twilight 6:19 AM EDT 6:58 PM EDT
Nautical Twilight 5:46 AM EDT 7:32 PM EDT
Astronomical Twilight 5:12 AM EDT 8:06 PM EDT
Moon 6:59 PM EDT (10/1) 8:20 AM EDT (10/1)
Length of Visible Light 12h 39m
Length of Day
11h 41m
Full, 98% of the Moon is Illuminated
Oct 1
Full
Oct 8
Last Quarter
Oct 15
New
Oct 21
First Quarter
Oct 29
Full

Hourly Weather History & Observations

Time (EDT) Temp. Dew Point Humidity Pressure Visibility Wind Dir Wind Speed Gust Speed Precip Events Conditions
12:20 AM 50.0 °F 48.2 °F 94% 29.65 in 10.0 mi Calm Calm - N/A   Overcast
12:51 AM 50.0 °F 48.0 °F 93% 29.66 in 10.0 mi South 3.5 mph - 0.00 in   Overcast
1:51 AM 50.0 °F 46.9 °F 89% 29.65 in 10.0 mi SSW 3.5 mph - 0.01 in Rain Light Rain
2:51 AM 50.0 °F 46.9 °F 89% 29.64 in 10.0 mi SSW 6.9 mph - 0.01 in Rain Light Rain
3:51 AM 50.0 °F 46.0 °F 86% 29.62 in 10.0 mi SW 6.9 mph - 0.01 in Rain Light Rain
4:51 AM 50.0 °F 46.0 °F 86% 29.62 in 10.0 mi SSW 6.9 mph - 0.01 in Rain Light Rain
5:51 AM 50.0 °F 46.0 °F 86% 29.61 in 10.0 mi SSW 10.4 mph - 0.00 in Rain Light Rain
6:51 AM 50.0 °F 46.0 °F 86% 29.61 in 10.0 mi SSW 9.2 mph - 0.00 in   Overcast
7:51 AM 51.1 °F 46.9 °F 86% 29.62 in 10.0 mi SW 8.1 mph - N/A   Overcast
8:51 AM 52.0 °F 48.0 °F 86% 29.64 in 9.0 mi SW 10.4 mph 17.3 mph 0.00 in   Overcast
9:51 AM 52.0 °F 48.9 °F 89% 29.67 in 10.0 mi SW 8.1 mph - 0.00 in   Overcast
10:51 AM 54.0 °F 50.0 °F 86% 29.69 in 10.0 mi West 6.9 mph 23.0 mph N/A   Overcast
11:51 AM 54.0 °F 50.0 °F 86% 29.72 in 10.0 mi WNW 6.9 mph - 0.01 in   Overcast
12:51 PM 55.9 °F 51.1 °F 84% 29.74 in 10.0 mi West 8.1 mph 18.4 mph N/A   Overcast
1:51 PM 57.0 °F 50.0 °F 77% 29.75 in 10.0 mi WNW 12.7 mph 23.0 mph N/A   Overcast
2:51 PM 57.0 °F 50.0 °F 77% 29.78 in 10.0 mi WNW 9.2 mph 18.4 mph N/A   Overcast
3:04 PM 57.2 °F 50.0 °F 77% 29.78 in 10.0 mi WNW 11.5 mph 19.6 mph N/A   Overcast
3:51 PM 55.9 °F 50.0 °F 80% 29.81 in 10.0 mi West 11.5 mph 21.9 mph N/A   Overcast
4:06 PM 55.4 °F 50.0 °F 82% 29.81 in 10.0 mi WNW 10.4 mph 19.6 mph N/A   Overcast
4:51 PM 55.0 °F 50.0 °F 83% 29.84 in 10.0 mi West 5.8 mph - N/A   Overcast
5:51 PM 55.4 °F 51.8 °F 88% 29.85 in 10.0 mi Calm Calm - N/A   Overcast
6:51 PM 55.9 °F 51.1 °F 84% 29.89 in 10.0 mi Calm Calm - N/A   Overcast
7:51 PM 55.0 °F 52.0 °F 89% 29.91 in 10.0 mi Calm Calm - N/A   Overcast
8:20 PM 53.6 °F 51.8 °F 94% 29.90 in 10.0 mi Calm Calm - N/A   Overcast
8:51 PM 54.0 °F 52.0 °F 93% 29.92 in 10.0 mi Calm Calm - N/A   Overcast
9:51 PM 53.1 °F 52.0 °F 96% 29.94 in 10.0 mi Calm Calm - N/A   Overcast
10:51 PM 52.0 °F 52.0 °F 100% 29.95 in 10.0 mi Calm Calm - N/A   Mostly Cloudy
11:51 PM 50.0 °F 48.9 °F 96% 29.96 in 10.0 mi Calm Calm - N/A   Mostly Cloudy